User: anonymous   Login
Location: Unspecified
(0.0000°N, 0.0000°E)
Time: 00:34:31
(UTC+00:00)
Language:

USA 186 - Orbit

View from above orbital plane
View from above orbital plane
View from above satellite
View from above satellite

Ground track
Ground track

The orbit data is extracted from the following two-line orbital elements,

1 28888U 05042A   15048.72838543 0.00068000  00000-0  27880-3 0    08
2 28888  96.8348  88.6235 0125270 121.5565 238.4434 15.74762568    07
Epoch (UTC): 17 February 2015 17:28:52
Eccentricity: 0.0125270
inclination: 96.8348°
perigee height: 261 km
apogee height: 429 km
right ascension of ascending node: 88.6235°
argument of perigee: 121.5565°
revolutions per day: 15.74762568
mean anomaly at epoch: 238.4434°
orbit number at epoch: 0

The dashed part of the orbit path shows where the satellite is in the earth's shadow,  

DLR